www.pogodaiklimat.ru

АРХИВ ПОГОДЫ в Вашингтоне

Время (UTC), дата Ветер
(напр.,м/с)
 
Видим.   Явления Облачность Т
(С)
Тd
(С)
f
(%)
Тe
(С)
Тes
(С)
Комфортность

P
(гПа)

Po
(гПа)
Тmin
(С)
Tmax
(С)
R
(мм)
SD
(см)
21:52 16.06 ЮВ  16 км    8/5 1440 м
[верхняя] 
+28.3  +21.7  67  +36  +37  очень
душно 
1004.1  1003.5         
22:52 16.06 ЮВ  16 км    8/2 1440 м
[средняя верхняя] 
+26.7  +21.1  71  +34  +34  очень
душно 
1004.7  1004.1         
23:52 16.06 В  16 км    8/2 1440 м
[средняя верхняя] 
+25.0  +20.6  77  +31  +31  очень
душно 
1005.0  1004.5  +25.0  +31.7     
00:27 17.06 В  7
{9} 
16 км  слабый дождь  8/8 450 м
[верхняя] 
+23.9  +20.6  82  +30  +30  очень
душно 
  1004.5         
00:52 17.06 В  16 км  слабый дождь  10/10 450 м  +22.8  +20.0  84  +29  +29  очень
душно 
1006.0  1005.5         
01:02 17.06 В  11 км  дождь  10/10 420 м  +22.8  +20.0  84  +29  +29  очень
душно 
  1005.5         
01:06 17.06 В  10 км  гроза с дождем  10/10 420 м  +22.8  +20.0  84  +29  +29  очень
душно 
  0.0         
01:29 17.06 В  11 км  гроза со слабым дождем  10/10 480 м  +22.8  +20.6  87  +30  +30  очень
душно 
  0.0         
01:52 17.06 СВ  8 км  гроза с дождем, дымка  10/10 480 м  +22.2  +20.6  91  +29  +29  очень
душно 
1007.6  0.0         
02:21 17.06 В  10  6 км  гроза с дождем, дымка  10/5 540 м
[средняя] 
+21.7  +20.6  93  +27  +27  душно    0.0         
02:52 17.06 В  11
{15} 
10 км  гроза с дождем, дымка  10/5 540 м
[средняя] 
+21.1  +20.0  93  +26  +26  душно  1003.5  0.0      8.1   
03:11 17.06 В  6
{9} 
10 км  гроза с дождем, дымка  10/2 270 м
[средняя] 
+20.6  +19.4  93  +25  +25  комфорт    0.0         
03:52 17.06 СВ  16 км    10/10 330 м  +20.6  +18.3  87  +24  +24  комфорт  1006.7  1006.2         
04:52 17.06 В  16 км    10/10 360 м  +20.6  +18.3  87  +25  +25  комфорт  1007.3  1006.9         
05:24 17.06 В  16 км    10/10 270 м  +20.0  +18.3  90  +24  +24  комфорт    1006.9         
05:52 17.06 СВ  16 км    10/10 270 м  +20.0  +18.3  90  +23  +23  комфорт  1007.2  1006.9  +20.0  +25.0  11.2   
06:52 17.06 СВ  8 км  дымка  10/10 180 м  +19.4  +18.3  93  +21  +21  комфорт  1007.4  1006.9         
07:00 17.06 СВ  6 км  дымка  10/10 180 м  +19.4  +18.3  93  +21  +21  комфорт    1006.9         
07:52 17.06 СВ  6 км  дымка  10/10 240 м  +19.4  +17.2  87  +21  +21  комфорт  1007.6  1007.2         
07:57 17.06 СВ  11 км    10/10 240 м  +19.4  +17.2  87  +21  +21  комфорт    1007.2         
08:41 17.06 СВ  11 км    10/10 390 м  +18.9  +16.7  87  +20  +20      1007.2         
08:52 17.06 СВ  11 км    10/10 420 м  +18.9  +16.1  84  +19  +19    1007.8  1007.2         
09:06 17.06 СВ  16 км    10/10 480 м  +18.9  +16.1  84  +20  +20      1007.5         
09:52 17.06 СВ  16 км    10/5 540 м
[средняя] 
+18.9  +16.1  84  +20  +20    1008.6  1008.2         
10:22 17.06 СВ  16 км    10/10 390 м  +18.9  +16.1  84  +19  +19      1008.5         
10:52 17.06 С  16 км    10/10 390 м  +18.9  +16.1  84  +20  +20    1009.3  1008.9         
11:52 17.06 СВ  16 км    10/10 390 м  +19.4  +16.7  84  +21  +21  комфорт  1009.8  1009.2  +18.9  +20.0     
12:35 17.06 СВ  16 км    10/10 360 м  +20.0  +16.7  81  +22  +22  комфорт    1009.9         
12:52 17.06 СВ  16 км    8/8 360 м  +20.6  +16.7  78  +24  +25  комфорт  1010.6  1010.2         
13:45 17.06 СВ  16 км    10/10 360 м  +20.0  +16.1  78  +22  +22  комфорт    1011.3         
13:52 17.06 СВ  16 км    10/10 360 м  +20.0  +16.1  78  +22  +22  комфорт  1012.0  1011.6         
14:52 17.06 СВ  16 км    10/10 360 м  +21.1  +17.2  78  +25  +25  комфорт  1013.0  1012.6         
15:11 17.06 В  16 км    10/10 540 м  +23.3  +17.8  71  +29  +29  душно    1012.3         
15:52 17.06 СВ  16 км    8/5 750 м
[средняя] 
+24.4  +15.6  58  +27  +28  жарко  1012.9  1012.3         
16:52 17.06 В  7
{10} 
16 км    8/5 750 м
[средняя] 
+26.1  +14.4  48  +28  +29  жарко  1013.5  1012.9         
17:52 17.06 В  16 км    8/5 750 м
[средняя] 
+26.7  +14.4  47  +29  +33  жарко  1013.9  1013.3  +19.4  +26.7     
18:52 17.06 СВ  16 км    2/2 1500 м
[верхняя] 
+27.2  +15.6  49  +30  +35  душно  1014.3  1013.6         
19:52 17.06 СВ  16 км    2/2 1500 м
[верхняя] 
+27.2  +15.0  47  +30  +37  душно  1014.4  1014.0         
20:52 17.06 В  4
{9} 
16 км    2/2 1500 м
[верхняя] 
+27.2  +15.0  47  +30  +37  душно  1014.6  1014.0         
21:52 17.06 ЮВ  3
{7} 
16 км    2/2 1800 м
[верхняя] 
+27.2  +14.4  45  +29  +35  жарко  1014.6  1014.0         
22:52 17.06 ЮВ  16 км    2/2 1800 м  +26.7  +13.9  45  +29  +31  жарко  1014.7  1014.3         
23:52 17.06 ЮВ  16 км    2/0 2400 м
[средняя] 
+25.6  +13.9  48  +28  +29  жарко  1015.3  1014.6  +25.6  +27.8     
00:52 18.06 ЮВ  16 км    5/0 2400 м
[средняя] 
+24.4  +13.3  50  +27  +27  жарко  1016.2  1015.7         
01:52 18.06 ЮВ  16 км    5/0 2700 м
[средняя] 
+23.9  +12.8  50  +26  +26  жарко  1017.7  1017.3         
02:52 18.06 Ю  16 км    5/0 2700 м
[средняя] 
+22.8  +13.3  55  +26  +26  жарко  1018.6  1018.0         
03:52 18.06 ЮВ  16 км    5/0 2250 м
[средняя] 
+21.7  +13.9  61  +25  +25  комфорт  1019.1  1018.7         
04:52 18.06 В  16 км    8/0 2100 м
[средняя] 
+21.1  +13.9  63  +24  +24  комфорт  1019.5  1019.0         
05:52 18.06 нст  16 км    8/0 2100 м
[средняя] 
+20.6  +14.4  68  +24  +24  комфорт  1019.8  1019.4  +20.6  +25.6     

 

Местоположение метеостанции Reagan National Airport: широта 38.8483 долгота -77.0342 высота над уровнем моря 4 м.

В архиве по умолчанию представлена погода в Вашингтоне за последние 1-2 суток. Обновление информации о фактической погоде в базе происходит ежечасно! Архивные данные за месяц целиком и за предыдущие месяцы Вы можете получить, выбрав интересующий диапазон дат из раскрывающегося списка и нажав кнопку "Ввод!".

Внимание! Архив погоды МЕТАР в базе сайта в настоящее время начинается c 1 января 2013 г. Нет смысла пытаться выбрать более раннюю дату.

Внимание! Время в таблицах - всемирное. Для получения местного времени необходимо прибавить поправку, которая в Вашингтоне равна -5 ч.

Ветер - указаны скорость ветра в м/с и направление, откуда дует ветер: С - северный, СВ - северо-восточный, В - восточный, ЮВ - юго-восточный, Ю - южный, ЮЗ - юго-западный, З - западный, СЗ - северо-западный.
Видимость - горизонтальная дальность видимости в метрах или километрах. При видимости от 1 до 10 км при отсутствии осадков обычно наблюдается дымка, при ухудшении видимости до 1 км и менее - туман. В сухую погоду видимость может ухудшаться дымом, пылью или мглою.
Атмосферные явления - указаны явления, наблюдавшиеся в указанный момент времени.
Облачность - указаны через наклонную черту верхняя и нижняя облачность в баллах и высота нижней границы облаков в метрах. Внимание: облачность, как и прочие метеорологические величины в США измеряются автоматическими метеостанциями. Указанные значения в баллах носят условный характер и показывают процент времени, в течение которого, в среднем, лазерный луч высотомера отражался от облаков обратно.
T - Температура воздуха - температура, измеренная на высоте 2 м над землей.
Td - Температура точки росы - температура, при понижении до которой содержащийся в воздухе водяной пар достигнет насыщения.
f - Относительная влажность воздуха - влажноcть воздуха, измеренная на высоте 2 м над землей.
Te - Эффективная температура - температура, которую ощущает одетый по сезону человек в тени. Характеристика душности погоды. При расчете учитывается влияние влажности воздуха и скорости ветра на теплоощущения человека.
Tes - Эффективная температура на солнце - температура, которую ощущает человек, с поправкой на солнечный нагрев. Характеристика знойности погоды. Зависит от высоты солнца над горизонтом, облачности и скорости ветра. Ночью, в пасмурную погоду, а также при ветре 12 м/с и более поправка равна нулю.
P - Атмосферное давление - приведенное к уровню моря атмосферное давление.
Po - Атмосферное давление - измеренное на уровне метеостанции атмосферное давление.
Tmin - Минимальная температура - минимум температуры воздуха на высоте 2 м над землей.
Tmax - Максимальная температура - максимум температуры воздуха на высоте 2 м над землей.
R - Количество осадков - Количество выпавших осадков за 3 или 6 часов, мм.
SD - Снежный покров - Высота снежного покрова, см.